User: anonymous   Login
Location: Kuppenheim
(48.8299°N, 8.2568°E)
Time: 18:00:28
(UTC+00:00)
Language:

FALCON 9 DEB - Orbit

View from above orbital plane
View from above orbital plane
View from above satellite
View from above satellite

Ground track
Ground track

The orbit data is extracted from the following two-line orbital elements,

1 46084U 20055BK  21267.69672459  .00031572  00000-0  28397-3 0  9990
2 46084  53.0119  70.4927 0010264 213.5938 146.4427 15.67906724 69219
Epoch (UTC): 24 September 2021 16:43:17
Eccentricity: 0.0010264
inclination: 53.0119°
perigee height: 358 km
apogee height: 372 km
right ascension of ascending node: 70.4927°
argument of perigee: 213.5938°
revolutions per day: 15.67906724
mean anomaly at epoch: 146.4427°
orbit number at epoch: 6921

The dashed part of the orbit path shows where the satellite is in the earth's shadow,  

DLR